H1 CPF 2 NER 2021 12 18 9 352 01 glonass127 H2 1106403 9127 37869 2021 12 18 0 0 0 2021 12 21 23 45 0 900 1 1 0 0 0 1 H9 10 0 59566 0.00000 0 -14071192.629 974871.399 21295480.146 10 0 59566 900.00000 0 -16052790.214 -597436.764 19853409.325 10 0 59566 1800.00000 0 -17981567.662 -1903729.158 18027119.713 10 0 59566 2700.00000 0 -19792687.319 -2935491.531 15851722.619 10 0 59566 3600.00000 0 -21422720.192 -3696748.463 13369123.406 10 0 59566 4500.00000 0 -22812231.856 -4203656.590 10627235.395 10 0 59566 5400.00000 0 -23908227.978 -4483585.938 7679073.497 10 0 59566 6300.00000 0 -24666356.874 -4573726.588 4581743.141 10 0 59566 7200.00000 0 -25052775.590 -4519278.072 1395342.711 10 0 59566 8100.00000 0 -25045599.334 -4371296.992 -1818200.064 10 0 59566 9000.00000 0 -24635870.890 -4184293.452 -4996335.371 10 0 59566 9900.00000 0 -23828006.521 -4013678.280 -8077118.099 10 0 59566 10800.00000 0 -22639696.950 -3913170.255 -11000429.257 10 0 59566 11700.00000 0 -21101265.164 -3932274.896 -13709166.652 10 0 59566 12600.00000 0 -19254506.238 -4113943.942 -16150379.657 10 0 59566 13500.00000 0 -17151056.827 -4492517.358 -18276324.016 10 0 59566 14400.00000 0 -14850362.390 -5092037.782 -20045414.152 10 0 59566 15300.00000 0 -12417327.831 -5925011.375 -21423052.621 10 0 59566 16200.00000 0 -9919750.967 -6991669.807 -22382319.131 10 0 59566 17100.00000 0 -7425647.549 -8279766.383 -22904504.690 10 0 59566 18000.00000 0 -5000581.283 -9764916.078 -22979479.831 10 0 59566 18900.00000 0 -2705111.761 -11411465.717 -22605889.635 10 0 59566 19800.00000 0 -592467.844 -13173857.595 -21791172.005 10 0 59566 20700.00000 0 1293455.844 -14998428.486 -20551399.494 10 0 59566 21600.00000 0 2919696.008 -16825567.401 -18910948.772 10 0 59566 22500.00000 0 4265345.789 -18592140.174 -16902005.353 10 0 59566 23400.00000 0 5322162.688 -20234077.684 -14563914.750 10 0 59566 24300.00000 0 6094636.541 -21689017.916 -11942394.191 10 0 59566 25200.00000 0 6599517.844 -22898890.132 -9088621.869 10 0 59566 26100.00000 0 6864829.629 -23812332.310 -6058223.030 10 0 59566 27000.00000 0 6928407.919 -24386840.604 -2910174.075 10 0 59566 27900.00000 0 6836035.389 -24590561.449 294352.898 10 0 59566 28800.00000 0 6639249.567 -24403652.382 3493181.654 10 0 59566 29700.00000 0 6392920.009 -23819156.282 6624335.964 10 0 59566 30600.00000 0 6152697.854 -22843354.258 9627233.001 10 0 59566 31500.00000 0 5972445.706 -21495584.364 12443843.302 10 0 59566 32400.00000 0 5901755.827 -19807535.361 15019795.920 10 0 59566 33300.00000 0 5983660.199 -17822046.224 17305408.923 10 0 59566 34200.00000 0 6252627.457 -15591462.047 19256627.059 10 0 59566 35100.00000 0 6732929.386 -13175614.656 20835850.631 10 0 59566 36000.00000 0 7437444.224 -10639510.912 22012641.687 10 0 59566 36900.00000 0 8366946.005 -8050823.159 22764295.820 10 0 59566 37800.00000 0 9509909.406 -5477283.688 23076270.224 10 0 59566 38700.00000 0 10842838.737 -2984088.641 22942460.902 10 0 59566 39600.00000 0 12331108.541 -631416.368 22365324.176 10 0 59566 40500.00000 0 13930282.686 1527839.483 21355840.013 10 0 59566 41400.00000 0 15587859.404 3450030.305 19933317.018 10 0 59566 42300.00000 0 17245372.197 5102326.398 18125041.396 10 0 59566 43200.00000 0 18840761.712 6463839.903 15965774.663 10 0 59566 44100.00000 0 20310921.992 7526250.196 13497107.517 10 0 59566 45000.00000 0 21594316.516 8293905.156 10766679.969 10 0 59566 45900.00000 0 22633555.616 8783393.120 7827280.513 10 0 59566 46800.00000 0 23377827.467 9022602.238 4735839.778 10 0 59566 47700.00000 0 23785079.827 9049305.424 1552336.741 10 0 59566 48600.00000 0 23823859.250 8909329.423 -1661362.145 10 0 59566 49500.00000 0 23474728.098 8654384.606 -4842708.610 10 0 59566 50400.00000 0 22731196.931 8339647.100 -7929698.964 10 0 59566 51300.00000 0 21600130.106 8021196.197 -10862096.349 10 0 59566 52200.00000 0 20101604.655 7753416.845 -13582623.512 10 0 59566 53100.00000 0 18268226.036 7586479.122 -16038100.891 10 0 59566 54000.00000 0 16143927.708 7564003.822 -18180505.898 10 0 59566 54900.00000 0 13782303.860 7721015.528 -19967930.770 10 0 59566 55800.00000 0 11244545.038 8082272.365 -21365418.507 10 0 59566 56700.00000 0 8597063.531 8661045.361 -22345659.157 10 0 59566 57600.00000 0 5908908.831 9458400.862 -22889531.850 10 0 59566 58500.00000 0 3249082.550 10463017.589 -22986481.345 10 0 59566 59400.00000 0 683866.259 11651546.685 -22634721.625 10 0 59566 60300.00000 0 -1725725.126 12989499.580 -21841262.835 10 0 59566 61200.00000 0 -3926257.330 14432625.645 -20621761.665 10 0 59566 62100.00000 0 -5873861.530 15928720.562 -19000199.080 10 0 59566 63000.00000 0 -7535807.800 17419787.926 -17008392.893 10 0 59566 63900.00000 0 -8891602.874 18844461.586 -14685356.123 10 0 59566 64800.00000 0 -9933568.624 20140585.405 -12076515.184 10 0 59566 65700.00000 0 -10666879.871 21247840.734 -9232804.689 10 0 59566 66600.00000 0 -11109063.216 22110310.290 -6209658.115 10 0 59566 67500.00000 0 -11288981.450 22678870.396 -3065915.370 10 0 59566 68400.00000 0 -11245349.633 22913311.286 137330.313 10 0 59566 69300.00000 0 -11024848.319 22784097.235 3337922.778 10 0 59566 70200.00000 0 -10679915.904 22273693.878 6473847.073 10 0 59566 71100.00000 0 -10266314.804 21377408.634 9484423.969 10 0 59566 72000.00000 0 -9840574.940 20103710.698 12311472.123 10 0 59566 72900.00000 0 -9457422.248 18474018.784 14900416.436 10 0 59566 73800.00000 0 -9167299.829 16521966.683 17201322.656 10 0 59566 74700.00000 0 -9014084.713 14292178.004 19169839.989 10 0 59566 75600.00000 0 -9033094.641 11838601.102 20768035.630 10 0 59566 76500.00000 0 -9249466.888 9222472.678 21965107.206 10 0 59566 77400.00000 0 -9676975.697 6509993.187 22737961.348 10 0 59566 78300.00000 0 -10317336.944 3769808.352 23071648.912 10 0 59566 79200.00000 0 -11160028.880 1070398.561 22959649.633 10 0 59566 80100.00000 0 -12182636.968 -1522518.400 22404001.261 10 0 59566 81000.00000 0 -13351709.709 -3948466.489 21415270.604 10 0 59566 81900.00000 0 -14624091.648 -6154472.159 20012366.185 10 0 59566 82800.00000 0 -15948680.293 -8097014.817 18222194.717 10 0 59566 83700.00000 0 -17268536.109 -9743587.329 16079166.065 10 0 59566 84600.00000 0 -18523259.867 -11073802.220 13624553.938 10 0 59566 85500.00000 0 -19651539.908 -12079997.229 10905722.328 10 0 59567 0.00000 0 -20593763.919 -12767314.175 7975230.566 10 0 59567 900.00000 0 -21294586.730 -13153246.960 4889830.713 10 0 59567 1800.00000 0 -21705344.630 -13266675.418 1709379.222 10 0 59567 2700.00000 0 -21786215.117 -13146425.626 -1504322.171 10 0 59567 3600.00000 0 -21508027.745 -12839415.344 -4688730.171 10 0 59567 4500.00000 0 -20853647.625 -12398462.813 -7781785.881 10 0 59567 5400.00000 0 -19818870.185 -11879851.623 -10723137.833 10 0 59567 6300.00000 0 -18412786.357 -11340755.485 -13455336.800 10 0 59567 7200.00000 0 -16657599.997 -10836633.401 -15924977.125 10 0 59567 8100.00000 0 -14587902.846 -10418707.432 -18083760.391 10 0 59567 9000.00000 0 -12249435.767 -10131632.153 -19889458.726 10 0 59567 9900.00000 0 -9697387.385 -10011456.723 -21306757.122 10 0 59567 10800.00000 0 -6994301.199 -10083967.981 -22307956.921 10 0 59567 11700.00000 0 -4207679.232 -10363486.449 -22873525.688 10 0 59567 12600.00000 0 -1407383.386 -10852167.373 -22992482.084 10 0 59567 13500.00000 0 1337055.798 -11539837.030 -22662608.087 10 0 59567 14400.00000 0 3959109.533 -12404371.209 -21890484.657 10 0 59567 15300.00000 0 6397787.931 -13412599.307 -20691350.741 10 0 59567 16200.00000 0 8599937.668 -14521694.788 -19088789.378 10 0 59567 17100.00000 0 10522204.559 -15680991.915 -17114248.152 10 0 59567 18000.00000 0 12132579.981 -16834150.439 -14806404.831 10 0 59567 18900.00000 0 13411468.312 -17921575.318 -12210392.054 10 0 59567 19800.00000 0 14352233.181 -18882987.966 -9376897.746 10 0 59567 20700.00000 0 14961202.570 -19660039.471 -6361160.402 10 0 59567 21600.00000 0 15257135.963 -20198854.989 -3221880.183 10 0 59567 22500.00000 0 15270179.322 -20452401.987 -20068.230 10 0 59567 23400.00000 0 15040355.026 -20382583.024 3182142.494 10 0 59567 24300.00000 0 14615653.163 -19961965.953 6322701.249 10 0 59567 25200.00000 0 14049806.637 -19175080.086 9340835.067 10 0 59567 26100.00000 0 13399845.097 -18019225.388 12178213.064 10 0 59567 27000.00000 0 12723531.160 -16504762.258 14780057.945 10 0 59567 27900.00000 0 12076786.423 -14654870.934 17096184.703 10 0 59567 28800.00000 0 11511214.430 -12504791.387 19081948.150 10 0 59567 29700.00000 0 11071823.087 -10100575.504 20699083.098 10 0 59567 30600.00000 0 10795040.260 -7497402.901 21916423.075 10 0 59567 31500.00000 0 10707103.970 -4757529.101 22710485.679 10 0 59567 32400.00000 0 10822893.135 -1947949.188 23065914.980 10 0 59567 33300.00000 0 11145246.837 862128.740 22975773.658 10 0 59567 34200.00000 0 11664800.376 3603898.424 22441679.812 10 0 59567 35100.00000 0 12360345.505 6211553.247 21473785.737 10 0 59567 36000.00000 0 13199701.095 8624762.092 20090598.307 10 0 59567 36900.00000 0 14141059.697 10790922.797 18318642.984 10 0 59567 37800.00000 0 15134755.970 12667101.391 16191976.059 10 0 59567 38700.00000 0 16125385.305 14221577.407 13751552.192 10 0 59567 39600.00000 0 17054186.023 15434930.982 11044457.161 10 0 59567 40500.00000 0 17861586.910 16300625.877 8123018.281 10 0 59567 41400.00000 0 18489814.009 16825062.952 5043807.675 10 0 59567 42300.00000 0 18885447.140 17027100.362 1866556.257 10 0 59567 43200.00000 0 19001817.656 16937059.216 -1347001.485 10 0 59567 44100.00000 0 18801144.644 16595255.221 -4534329.750 10 0 59567 45000.00000 0 18256317.074 16050117.305 -7633316.844 10 0 59567 45900.00000 0 17352243.706 15355972.381 -10583498.950 10 0 59567 46800.00000 0 16086710.632 14570590.159 -13327256.895 10 0 59567 47700.00000 0 14470707.157 13752592.846 -15810960.709 10 0 59567 48600.00000 0 12528203.469 12958840.858 -17986037.657 10 0 59567 49500.00000 0 10295387.132 12241907.064 -19809941.020 10 0 59567 50400.00000 0 7819388.978 11647748.503 -21246998.816 10 0 59567 51300.00000 0 5156550.989 11213676.082 -22269124.505 10 0 59567 52200.00000 0 2370308.623 10966709.803 -22856374.708 10 0 59567 53100.00000 0 -471223.239 10922390.319 -22997342.382 10 0 59567 54000.00000 0 -3297858.972 11084097.684 -22689377.622 10 0 59567 54900.00000 0 -6040035.530 11442906.090 -21938631.991 10 0 59567 55800.00000 0 -8631476.907 11977980.092 -20759926.126 10 0 59567 56700.00000 0 -11011717.932 12657494.424 -19176444.162 10 0 59567 57600.00000 0 -13128381.912 13440036.934 -17219262.098 10 0 59567 58500.00000 0 -14939117.437 14276433.533 -14926720.733 10 0 59567 59400.00000 0 -16413114.679 15111916.132 -12343656.937 10 0 59567 60300.00000 0 -17532139.717 15888540.199 -9520509.735 10 0 59567 61200.00000 0 -18291046.071 16547748.285 -6512320.277 10 0 59567 62100.00000 0 -18697745.083 17032970.189 -3377646.534 10 0 59567 63000.00000 0 -18772639.639 17292149.425 -177415.058 10 0 59567 63900.00000 0 -18547548.258 17280089.421 3026266.904 10 0 59567 64800.00000 0 -18064167.769 16960521.069 6171315.331 10 0 59567 65700.00000 0 -17372141.683 16307805.535 9196866.037 10 0 59567 66600.00000 0 -16526817.244 15308201.999 12044441.077 10 0 59567 67500.00000 0 -15586786.389 13960648.428 14659063.396 10 0 59567 68400.00000 0 -14611314.026 12277023.867 16990299.558 10 0 59567 69300.00000 0 -13657760.894 10281882.132 18993212.166 10 0 59567 70200.00000 0 -12779107.719 8011668.348 20629205.620 10 0 59567 71100.00000 0 -12021682.610 5513450.556 21866751.072 10 0 59567 72000.00000 0 -11423184.884 2843218.121 22681978.491 10 0 59567 72900.00000 0 -11011086.071 63815.747 23059126.222 10 0 59567 73800.00000 0 -10801473.461 -2757403.634 22990840.554 10 0 59567 74700.00000 0 -10798383.591 -5551112.557 22478320.174 10 0 59567 75600.00000 0 -10993653.318 -8248627.401 21531302.673 10 0 59567 76500.00000 0 -11367295.247 -10784505.854 20167892.609 10 0 59567 77400.00000 0 -11888383.089 -13099018.290 18414233.081 10 0 59567 78300.00000 0 -12516411.671 -15140392.502 16304025.245 10 0 59567 79200.00000 0 -13203076.746 -16866739.786 13877902.756 10 0 59567 80100.00000 0 -13894402.048 -18247582.594 11182670.858 10 0 59567 81000.00000 0 -14533126.098 -19264919.740 8270422.507 10 0 59567 81900.00000 0 -15061249.695 -19913783.674 5197546.528 10 0 59567 82800.00000 0 -15422637.304 -20202264.995 2023645.551 10 0 59567 83700.00000 0 -15565562.352 -20151001.528 -1189616.293 10 0 59567 84600.00000 0 -15445087.727 -19792151.866 -4379713.870 10 0 59567 85500.00000 0 -15025178.921 -19167895.226 -7484485.892 10 0 59568 0.00000 0 -14280457.884 -18328520.232 -10443359.111 10 0 59568 900.00000 0 -13197519.918 -17330182.581 -13198548.059 10 0 59568 1800.00000 0 -11775755.846 -16232428.012 -15696201.129 10 0 59568 2700.00000 0 -10027640.311 -15095584.811 -17887473.999 10 0 59568 3600.00000 0 -7978472.276 -13978138.726 -19729503.483 10 0 59568 4500.00000 0 -5665576.195 -12934202.637 -21186262.568 10 0 59568 5400.00000 0 -3136996.097 -12011189.838 -22229278.255 10 0 59568 6300.00000 0 -449736.618 -11247790.853 -22838197.068 10 0 59568 7200.00000 0 2332375.212 -10672340.524 -23001186.532 10 0 59568 8100.00000 0 5141117.461 -10301644.990 -22715164.565 10 0 59568 9000.00000 0 7906487.762 -10140318.098 -21985852.539 10 0 59568 9900.00000 0 10559394.448 -10180654.671 -20827651.533 10 0 59568 10800.00000 0 13034311.166 -10403044.702 -19263345.134 10 0 59568 11700.00000 0 15271783.653 -10776909.234 -17323635.746 10 0 59568 12600.00000 0 17220683.880 -11262116.289 -15046524.859 10 0 59568 13500.00000 0 18840118.099 -11810814.763 -12476550.884 10 0 59568 14400.00000 0 20100910.349 -12369606.564 -9663900.953 10 0 59568 15300.00000 0 20986601.322 -12881963.189 -6663415.600 10 0 59568 16200.00000 0 21493923.337 -13290783.028 -3533507.124 10 0 59568 17100.00000 0 21632734.494 -13540980.244 -335013.883 10 0 59568 18000.00000 0 21425417.868 -13581995.416 2869986.190 10 0 59568 18900.00000 0 20905773.977 -13370122.070 6019379.285 10 0 59568 19800.00000 0 20117455.725 -12870551.623 9052213.233 10 0 59568 20700.00000 0 19112013.610 -12059051.646 11909865.934 10 0 59568 21600.00000 0 17946634.601 -10923208.092 14537163.042 10 0 59568 22500.00000 0 16681670.055 -9463180.532 16883424.714 10 0 59568 23400.00000 0 15378055.958 -7691939.734 18903422.872 10 0 59568 24300.00000 0 14094732.469 -5634978.158 20558232.575 10 0 59568 25200.00000 0 12886169.014 -3329505.290 21815963.186 10 0 59568 26100.00000 0 11800096.385 -823160.538 22652357.206 10 0 59568 27000.00000 0 10875538.430 1827704.356 23051246.984 10 0 59568 27900.00000 0 10141223.539 4560104.364 23004861.755 10 0 59568 28800.00000 0 9614440.732 7306778.051 22513979.756 10 0 59568 29700.00000 0 9300387.177 9998727.658 21587922.481 10 0 59568 30600.00000 0 9192034.200 12567840.127 20244390.481 10 0 59568 31500.00000 0 9270517.961 14949483.071 18509142.524 10 0 59568 32400.00000 0 9506039.650 17084970.282 16415522.437 10 0 59568 33300.00000 0 9859239.157 18923795.908 14003840.462 10 0 59568 34200.00000 0 10282986.528 20425544.997 11320618.749 10 0 59568 35100.00000 0 10724517.723 21561400.750 8417713.190 10 0 59568 36000.00000 0 11127826.311 22315184.644 5351326.502 10 0 59568 36900.00000 0 11436211.195 22683884.470 2180930.163 10 0 59568 37800.00000 0 11594872.951 22677646.326 -1031884.917 10 0 59568 38700.00000 0 11553448.337 22319229.064 -4224607.055 10 0 59568 39600.00000 0 11268374.242 21642942.369 -7335028.008 10 0 59568 40500.00000 0 10704978.713 20693111.959 -10302468.013 10 0 59568 41400.00000 0 9839207.730 19522135.847 -13068976.355 10 0 59568 42300.00000 0 8658911.536 18188213.665 -15580482.148 10 0 59568 43200.00000 0 7164632.938 16752845.449 -17787870.958 10 0 59568 44100.00000 0 5369861.314 15278206.631 -19647964.309 10 0 59568 45000.00000 0 3300739.131 13824511.566 -21124381.058 10 0 59568 45900.00000 0 995231.417 12447478.547 -22188262.387 10 0 59568 46800.00000 0 -1498208.092 11196004.821 -22818845.124 10 0 59568 47700.00000 0 -4122418.600 10110150.985 -23003871.486 10 0 59568 48600.00000 0 -6813686.864 9219520.517 -22739827.055 10 0 59568 49500.00000 0 -9504184.007 8542102.874 -22032002.503 10 0 59568 50400.00000 0 -12124581.608 8083628.426 -20894378.465 10 0 59568 51300.00000 0 -14606736.815 7837461.160 -19349336.710 10 0 59568 52200.00000 0 -16886333.505 7785031.834 -17427204.403 10 0 59568 53100.00000 0 -18905368.634 7896791.049 -15165641.767 10 0 59568 54000.00000 0 -20614380.019 8133639.409 -12608886.560 10 0 59568 54900.00000 0 -21974323.143 8448771.758 -9806871.666 10 0 59568 55800.00000 0 -22958019.815 8789855.111 -6814234.568 10 0 59568 56700.00000 0 -23551120.069 9101446.076 -3689239.420 10 0 59568 57600.00000 0 -23752539.519 9327543.986 -492633.929 10 0 59568 58500.00000 0 -23574356.622 9414170.809 2713535.737 10 0 59568 59400.00000 0 -23041177.067 9311868.491 5867128.414 10 0 59568 60300.00000 0 -22188994.643 8978008.530 8907106.369 10 0 59568 61200.00000 0 -21063598.654 8378817.157 11774705.725 10 0 59568 62100.00000 0 -19718596.297 7491031.924 14414557.171 10 0 59568 63000.00000 0 -18213133.728 6303121.224 16775736.666 10 0 59568 63900.00000 0 -16609411.274 4816016.697 18812727.492 10 0 59568 64800.00000 0 -14970095.902 3043328.546 20486277.160 10 0 59568 65700.00000 0 -13355737.578 1011034.949 21764134.748 10 0 59568 66600.00000 0 -11822295.362 -1243341.943 22621656.442 10 0 59568 67500.00000 0 -10418874.165 -3672040.360 23042269.371 10 0 59568 68400.00000 0 -9185764.201 -6218791.367 23017786.105 10 0 59568 69300.00000 0 -8152862.904 -8820909.939 22548564.419 10 0 59568 70200.00000 0 -7338543.542 -11411660.827 21643509.318 10 0 59568 71100.00000 0 -6749016.853 -13922804.159 20319916.569 10 0 59568 72000.00000 0 -6378212.254 -16287218.004 18603159.469 10 0 59568 72900.00000 0 -6208184.164 -18441491.523 16526223.023 10 0 59568 73800.00000 0 -6210027.563 -20328382.875 14129092.255 10 0 59568 74700.00000 0 -6345266.035 -21899040.520 11458004.131 10 0 59568 75600.00000 0 -6567655.619 -23114895.618 8564575.161 10 0 59568 76500.00000 0 -6825330.153 -23949145.800 5504819.460 10 0 59568 77400.00000 0 -7063198.793 -24387766.877 2338074.734 10 0 59568 78300.00000 0 -7225495.003 -24430008.211 -874144.055 10 0 59568 79200.00000 0 -7258368.972 -24088348.838 -4069341.463 10 0 59568 80100.00000 0 -7112412.661 -23387914.091 -7185265.122 10 0 59568 81000.00000 0 -6745008.686 -22365375.495 -10161131.363 10 0 59568 81900.00000 0 -6122401.021 -21067378.992 -12938827.601 10 0 59568 82800.00000 0 -5221396.892 -19548567.109 -15464066.167 10 0 59568 83700.00000 0 -4030624.703 -17869278.522 -17687465.137 10 0 59568 84600.00000 0 -2551291.701 -16093022.635 -19565533.116 10 0 59568 85500.00000 0 -797406.702 -14283836.869 -21061536.863 10 0 59569 0.00000 0 1204543.608 -12503639.579 -22146233.281 10 0 59569 900.00000 0 3416453.862 -10809690.683 -22798450.842 10 0 59569 1800.00000 0 5789956.700 -9252270.625 -23005506.999 10 0 59569 2700.00000 0 8268223.792 -7872673.089 -22763455.173 10 0 59569 3600.00000 0 10788132.731 -6701598.633 -22077155.072 10 0 59569 4500.00000 0 13282709.224 -5758015.546 -20960166.207 10 0 59569 5400.00000 0 15683741.229 -5048534.930 -19434467.463 10 0 59569 6300.00000 0 17924454.728 -4567324.509 -17530009.329 10 0 59569 7200.00000 0 19942138.341 -4296562.504 -15284108.931 10 0 59569 8100.00000 0 21680606.684 -4207409.672 -12740701.155 10 0 59569 9000.00000 0 23092399.576 -4261455.558 -9949462.015 10 0 59569 9900.00000 0 24140625.775 -4412575.047 -6964822.941 10 0 59569 10800.00000 0 24800375.515 -4609114.138 -3844896.633 10 0 59569 11700.00000 0 25059644.631 -4796310.408 -650336.601 10 0 59569 12600.00000 0 24919733.910 -4918844.313 2556846.395 10 0 59569 13500.00000 0 24395109.592 -4923412.597 5714487.457 10 0 59569 14400.00000 0 23512733.415 -4761214.937 8761466.739 10 0 59569 15300.00000 0 22310892.639 -4390249.275 11638881.776 10 0 59569 16200.00000 0 20837580.865 -3777320.003 14291171.122 10 0 59569 17100.00000 0 19148498.547 -2899675.569 16667168.954 10 0 59569 18000.00000 0 17304757.188 -1746207.947 18721071.896 10 0 59569 18900.00000 0 15370382.621 -318164.599 20413301.452 10 0 59569 19800.00000 0 13409720.280 1370656.350 21711247.526 10 0 59569 20700.00000 0 11484848.799 3294235.926 22589880.662 10 0 59569 21600.00000 0 9653107.336 5415176.185 23032223.019 10 0 59569 22500.00000 0 7964837.066 7686020.676 23029670.313 10 0 59569 23400.00000 0 6461428.533 10051000.739 22582159.246 10 0 59569 24300.00000 0 5173754.108 12448137.821 21698177.292 10 0 59569 25200.00000 0 4121049.365 14811617.509 20394613.980 10 0 59569 26100.00000 0 3310289.298 17074339.605 18696455.302 10 0 59569 27000.00000 0 2736085.371 19170540.987 16636325.268 10 0 59569 27900.00000 0 2381108.321 21038384.370 14253881.225 10 0 59569 28800.00000 0 2217020.202 22622406.469 11595072.251 10 0 59569 29700.00000 0 2205878.018 23875724.028 8711272.576 10 0 59569 30600.00000 0 2301951.389 24761905.201 5658304.669 10 0 59569 31500.00000 0 2453878.979 25256426.721 2495369.328 10 0 59569 32400.00000 0 2607073.450 25347653.965 -716097.585 10 0 59569 33300.00000 0 2706273.384 25037300.519 -3913619.964 10 0 59569 34200.00000 0 2698133.586 24340345.517 -7034904.272 10 0 59569 35100.00000 0 2533742.590 23284410.016 -10019065.658 10 0 59569 36000.00000 0 2170958.602 21908616.809 -12807832.105 10 0 59569 36900.00000 0 1576462.240 20261980.483 -15346701.252 10 0 59569 37800.00000 0 727436.185 18401394.962 -17586025.426 10 0 59569 38700.00000 0 -387202.423 16389303.411 -19482001.707 10 0 59569 39600.00000 0 -1766071.734 14291149.362 -20997545.819 10 0 59569 40500.00000 0 -3395130.380 12172717.474 -22103031.293 10 0 59569 41400.00000 0 -5248028.221 10097477.099 -22776878.303 10 0 59569 42300.00000 0 -7286989.009 8124041.710 -23005979.904 10 0 59569 43200.00000 0 -9464188.401 6303851.928 -22785957.142 10 0 59569 44100.00000 0 -11723569.355 4679180.023 -22121238.167 10 0 59569 45000.00000 0 -14003018.043 3281539.619 -21024960.367 10 0 59569 45900.00000 0 -16236808.122 2130566.566 -19518698.331 10 0 59569 46800.00000 0 -18358209.874 1233416.401 -17632024.075 10 0 59569 47700.00000 0 -20302153.806 584701.552 -15401909.500 10 0 59569 48600.00000 0 -22007836.436 166968.123 -12871984.238 10 0 59569 49500.00000 0 -23421158.779 -48310.918 -10091664.878 10 0 59569 50400.00000 0 -24496895.559 -99271.163 -7115174.150 10 0 59569 51300.00000 0 -25200505.079 -31785.697 -4000470.608 10 0 59569 52200.00000 0 -25509505.314 102730.822 -808110.870 10 0 59569 53100.00000 0 -25414360.415 249748.022 2399932.395 10 0 59569 54000.00000 0 -24918842.703 354171.712 5561473.201 10 0 59569 54900.00000 0 -24039857.348 362913.288 8615312.211 10 0 59569 55800.00000 0 -22806739.307 227368.240 11502410.908 10 0 59569 56700.00000 0 -21260053.864 -94300.205 14167018.143 10 0 59569 57600.00000 0 -19449952.226 -635167.423 16557728.566 10 0 59569 58500.00000 0 -17434151.530 -1417926.329 18628454.147 10 0 59569 59400.00000 0 -15275623.338 -2453705.759 20339292.079 10 0 59569 60300.00000 0 -13040085.928 -3741376.964 21657274.404 10 0 59569 61200.00000 0 -10793403.169 -5267376.810 22556986.935 10 0 59569 62100.00000 0 -8598995.870 -7006055.396 23021047.343 10 0 59569 63000.00000 0 -6515370.665 -8920534.658 23040434.557 10 0 59569 63900.00000 0 -4593866.592 -10964043.934 22614663.880 10 0 59569 64800.00000 0 -2876710.593 -13081679.329 21751804.557 10 0 59569 65700.00000 0 -1395460.860 -15212516.532 20468338.869 10 0 59569 66600.00000 0 -169901.594 -17291992.076 18788864.178 10 0 59569 67500.00000 0 792565.412 -19254456.849 16745641.899 10 0 59569 68400.00000 0 1497006.807 -21035797.902 14377999.834 10 0 59569 69300.00000 0 1960516.971 -22576020.950 11731597.069 10 0 59569 70200.00000 0 2211267.849 -23821686.687 8857563.254 10 0 59569 71100.00000 0 2287087.869 -24728099.034 5811526.752 10 0 59569 72000.00000 0 2233628.385 -25261152.715 2652548.876 10 0 59569 72900.00000 0 2102193.998 -25398761.012 -558016.245 10 0 59569 73800.00000 0 1947327.919 -25131801.440 -3757714.522 10 0 59569 74700.00000 0 1824254.746 -24464536.988 -6884213.929 10 0 59569 75600.00000 0 1786289.896 -23414492.612 -9876531.095 10 0 59569 76500.00000 0 1882327.153 -22011789.819 -12676237.183 10 0 59569 77400.00000 0 2154513.081 -20297965.550 -15228617.671 10 0 59569 78300.00000 0 2636209.555 -18324323.875 -17483761.507 10 0 59569 79200.00000 0 3350333.551 -16149889.412 -19397556.394 10 0 59569 80100.00000 0 4308147.272 -13839048.774 -20932568.873 10 0 59569 81000.00000 0 5508552.227 -11458979.968 -22058790.507 10 0 59569 81900.00000 0 6937919.165 -9076978.778 -22754234.431 10 0 59569 82800.00000 0 8570462.360 -6757795.721 -23005369.833 10 0 59569 83700.00000 0 10369143.269 -4561096.334 -22807385.607 10 0 59569 84600.00000 0 12287065.631 -2539152.060 -22164278.176 10 0 59569 85500.00000 0 14269302.846 -734858.803 -21088762.277 99